Voltar ao catálogo

ATLAS 5 CENTAUR DEB

LostHEO
NORAD 49048·DEBRIS·🇺🇸 United States

Lançado Sep 17, 2014 de Cape Canaveral Space Force Station

Loading…

Próximas Passagens (próximas 24 horas)

TLE

ObsoletoSource: Space-Track

Época: Jun 23, 2026, 01:05 UTC

1 49048U 14055DG  26174.04578493 -.00000054  00000-0  00000-0 0  9990
2 49048  20.8063 113.8467 4796359 222.3714  88.5003  1.93391183 47160

Acompanhe ATLAS 5 CENTAUR DEB em tempo real com AllMySat

Download on the App Store